Regional Weather Roundup
Issued by NWS

Home | Current Version | Previous Version | Graphics & Text | Print | Product List | Glossary Off
Versions: 1 2 3 4 5 6 7 8 9 10 11 12 13 14 15 16 17 18 19 20 21 22 23 24 25 26 27 28 29 30 31 32 33 34 35 36 37 38 39 40 41 42 43 44 45 46 47 48 49 50

000
ASUS43 KDTX 290210
RWRMI
MICHIGAN HOURLY REGIONAL WEATHER ROUNDUP
NATIONAL WEATHER SERVICE DETROIT/PONTIAC MI
1000 PM EDT WED JUN 28 2017

NOTE: "FAIR" INDICATES FEW OR NO CLOUDS BELOW 12,000 FEET WITH NO
SIGNIFICANT WEATHER AND/OR OBSTRUCTION TO VISIBILITY.

MIZ047>049-052>055-059>063-066>070-074>076-081>083-290300-
SOUTHEAST LOWER MICHIGAN

CITY           SKY/WX    TMP DP  RH WIND       PRES   REMARKS
ADRIAN         CLOUDY    73  52  47 S13       29.93F
ALMA           CLOUDY    62  60  93 N7        29.89F
ANN ARBOR      PTCLDY    70  54  56 SE8       29.91F
BAD AXE        RAIN      62  57  84 S9        29.93F
CARO           LGT RAIN  62  59  89 S6        29.93R
DETROIT CITY   CLOUDY    72  55  55 SE6       29.94F
DETROIT        CLOUDY    73  52  47 SE9       29.93F
FLINT          CLOUDY    67  55  65 E5        29.91S
GROSSE ILE     MOCLDY    72  59  64 S12       29.93F
HILLSDALE      PTCLDY    70  50  49 S7        29.92R
HOWELL         PTCLDY    67  52  57 SE7       29.91S

CITY           SKY/WX    TMP DP  RH WIND       PRES   REMARKS
JACKSON        CLOUDY    70  53  54 S9        29.91R
LAMBERTVILLE   CLOUDY    74  51  44 S6        29.94R
LANSING        CLOUDY    70  52  52 SE9       29.87F
LAPEER         DRIZZLE   66  55  68 SE3       29.94S
MASON          PTCLDY    68  55  63 SE8       29.90R
MONROE         CLOUDY    73  53  50 S8        29.93S
MT. CLEMENS    CLOUDY    68  59  72 SE6       29.94F
PONTIAC        LGT RAIN  69  55  60 SE6       29.92F
PORT HOPE        N/A     63  58  83 SE7       29.91F
PORT HURON     CLOUDY    64  55  72 SE3       29.96R
TRI CITIES     LGT RAIN  63  60  90 S10       29.90F
MIDLAND        LGT RAIN  62  57  83 S7        29.88S
TROY           CLOUDY    73  48  40 CALM      29.95S
SAGINAW HB     LGT RAIN  63  55  77 SE8       29.91F
$$
MIZ043>046-050>051-056>058-064>065-071>073-077>080-290300-
SOUTHWEST LOWER MICHIGAN

CITY           SKY/WX    TMP DP  RH WIND       PRES   REMARKS
BATTLE CREEK   CLOUDY    73  53  49 S15       29.85F
BENTON HARBOR  CLOUDY    76  55  48 S14G22    29.80F
BIG RAPIDS     LGT RAIN  62  57  85 S7        29.81F
COLDWATER      PTCLDY    74  49  41 S7G16     29.90R
FREMONT        LGT RAIN  62  60  93 E5        29.81F
HOLLAND        CLOUDY    68  59  73 SE7       29.80S
GRAND RAPIDS   CLOUDY    65  60  84 E9        29.82F
IONIA          MOCLDY    65  55  69 E5        29.85F
KALAMAZOO      CLOUDY    73  52  47 S10       29.85S
LUDINGTON      LGT RAIN  65  61  87 S22G29    29.70F
MARSHALL       CLOUDY    73  53  49 S10       29.87F
MOUNT PLEASANT HVY RAIN  61  58  90 SE15      29.83F
MUSKEGON       TSTM      66  61  84 S5        29.82R
SOUTH HAVEN    MOCLDY    76  57  52 S10G17    29.80F
$$
MIZ016>042-290300-
NORTHERN LOWER MICHIGAN

CITY           SKY/WX    TMP DP  RH WIND       PRES   REMARKS
ALPENA         CLOUDY    62  61  96 SE7       29.86F
BEAVER ISLAND  RAIN      61  61 100 SE8       29.74F
BELLAIRE       CLOUDY    64  59  86 S6        29.76F
CADILLAC       MOCLDY    62  59  91 S14       29.79F
CHARLEVOIX     CLOUDY    63  63 100 SE7       29.77F
FRANKFORT      CLOUDY    65  59  81 S13G25    29.70F
GAYLORD        CLOUDY    63  57  81 S12       29.81F
GRAYLING       LGT RAIN  62  58  88 S12       29.83F
HARBOR SPRINGS CLOUDY    62  62 100 CALM      29.78F
HOUGHTON LAKE  CLOUDY    62  58  86 S10       29.85S
MANISTEE       CLOUDY    64  61  90 SE9G17    29.70F
OSCODA         CLOUDY    64  57  78 S13G20    29.87F
PELLSTON       LGT RAIN  62  59  90 SE7       29.78F
ROGERS CITY    LGT RAIN  61  59  93 S9        29.84F
TRAVERSE CITY  LGT RAIN  66  59  78 VRB7      29.71F
$$
MIZ007>008-015-290300-
EASTERN UPPER MICHIGAN

CITY           SKY/WX    TMP DP  RH WIND       PRES   REMARKS
KINROSS        LGT RAIN  60  60 100 SE13      29.81F
MACKINAC ISLAN LGT RAIN  61  61 100 S7        29.79F
NEWBERRY       LGT RAIN  60  59  97 SE9       29.75F
S. S. MARIE    CLOUDY    62  60  93 SE9       29.81F
MUNISING         N/A     60  60 100 S7        29.67F
$$
MIZ004>006-011>014-085-290300-
CENTRAL UPPER MICHIGAN

CITY           SKY/WX    TMP DP  RH WIND       PRES   REMARKS
MANISTIQUE     CLOUDY    58  55  89 SE6       29.71F FOG
ESCANABA       HVY RAIN  61  60  97 SE10      29.67F FOG
MENOMINEE      CLOUDY    63  61  93 S6        29.66S
SAWYER-GWINN   LGT RAIN  59  57  94 S9        29.67F
$$
MIZ001>003-009>011-084-290300-
WESTERN UPPER MICHIGAN

CITY           SKY/WX    TMP DP  RH WIND       PRES   REMARKS
IRON MOUNTAIN  LGT RAIN  62  59  90 SE5       29.64S FOG
HOUGHTON       LGT RAIN  60  58  92 E7        29.62F FOG
COPPER HARBOR    N/A     60  58  92 VRB6      29.64F
IRONWOOD       CLOUDY    65  63  93 SE9       29.55F
$$

ABBREVIATIONS USED IN REMARKS
   TC - TEMPERATURE IN CELSIUS
  WCI - WIND CHILL INDEX
   HX - HEAT INDEX
  VSB - VISIBILITY





USA.gov is the U.S. government's official web portal to all federal, state and local government web resources and services.